Tracking 30923 objects as of 1-Jul-2025
HD Live streaming from Space Station
objects crossing your sky now

COSMOS 2251 DEB

Track COSMOS 2251 DEB now!
10-day predictions


NORAD ID: 40233
Int'l Code: 1993-036BVN
Perigee: 676.4 km
Apogee: 747.7 km
Inclination: 73.9 °
Period: 98.9 minutes
Semi major axis: 7083 km
RCS: Unknown
Launch date: June 16, 1993
Source: Commonwealth of Independent States (former USSR) (CIS)
Launch site: PLESETSK MISSILE AND SPACE COMPLEX (PKMTR)

Note: This is SATELLITE DEBRIS
Your satellite tracking list
Your tracking list is empty




NASA's NSSDC Master Catalog

Two Line Element Set (TLE):
1 40233U 93036BVN 25179.09189328  .00002376  00000-0  53309-3 0  9998
2 40233  73.9410  63.4664 0050299 175.4737 184.6892 14.56378989566955
Source of the keplerian elements: AFSPC